STARLINK-5734, 55612

Orbit data source: Space-Track

STARLINK-5734, 55612 is a payload satellite owned by SpaceX/Seattle (US) in LEO that was launched on Sun, 12 Feb 2023 UTC via an FALCON 9 launch vehicle from the Air Force Eastern Test Range (AFETR). Payload-class satellites include a variety of spacecraft equipped with specific instruments for various scientific and technological missions. These include communications satellites like Starlink; space stations such as the ISS; scientific satellites like the Hubble; Earth observation satellites from companies like Planet Labs, Umbra, and HawkEye 360; GPS; miniature CubeSats for education and research; and military/defense satellites.

Loading next visibility...
Identifier
55612, 2023-020AV
Orbit
LEO
Country
Flag of USUS
Related business
Manufacturer
SpaceX/Seattle
Mission
Operational Commercial Communications
Bus & Motor
STARLINK, Unknown motor
Mass
305 kg wet, ~290 kg dry
Launch date (UTC)
2023-02-12 (4 years ago)
Launch vehicle
FALCON 9
Launch site
Air Force Eastern Test Range (AFETR)
Object type
Payload
Rocket body
Debris
Shape & HBR
Box + 1 Pan, 10.1 m
Radar Cross Section
13.562 m², Large (>1 m²)

Expand to show TLE details & history
Last TLE update: 11 hours ago

TLE from 11 hours ago
0 STARLINK-5734
1 55612U 23020AV  26264.45042728  .00000463  00000-0  26367-4 0  9999
2 55612  43.0045 329.0824 0001902 278.8020  81.2616 15.27576905198979
Epoch: 2026-09-21T10:48Z
TLE epoch observation values (Epoch: 2026-09-21T10:48:36.916Z)
Latitude
-0.00006°
Longitude
166.59844°
Altitude
482.636 km
Speed
7.626 km/s
True Right ascension
21h 56m 19s
True Declination
0° 00' 00"
Sunlit
Object was in full shadow at epoch
Visualization orbit readout
Latitude
Unknown
Longitude
Unknown
Altitude
Unknown
Speed
Unknown
Apparent Right ascension
Unknown
Apparent Declination
Unknown
Sunlit
N/A
Visualization observer readout
Local Sidereal Time
15:13:03
Azimuth
Unknown
Elevation
Unknown
Doppler factor
Unknown
Orbital elements
Apogee altitude
486.308 km
Perigee altitude
483.697 km
Semi-major axis
6,863.14 km
Eccentricity
0.00019
Inclination
43.0045°
RAAN
329.0824°
Arg. of periapsis
278.802°
True anomaly
81.28314°
Mean anomaly
81.2616°
Eccentric anomaly
81.27237°
Mean motion
3.81732 °/min
Orbital period
94.31 mins
BSTAR
0.000026367
Loading maneuver chart data...
Computing Atmospheric mass density...
Loading historical data...
Loading historical data...
Loading historical data...
Loading historical data...
Loading historical data...
Loading historical data...
Loading historical data...

Documentation

Showing up to 5 results
|